^^
Station Historical Data
Daily Summary for May 5, 2017 Units:  Metric    English   Both
« Previous Day
Next Day »
Daily Weekly Monthly Yearly Custom
  High: Low: Average:
Temperature: 30.1 °C 19 °C 23.7 °C
Dew Point: 9.1 °C 3.1 °C 5.6 °C
Humidity: 50% 22% 32%
Wind Speed: 20.9km/h 0km/h 5.5km/h
Wind Gust: 29km/h - -
Wind- - WSW
Pressure: 1013.4 hPa 1010.4 hPa -
Precipitation: 0 mm    
Historical Graphs
 
 
Tabular Data for May 5, 2017
Time Temperature Dew Point Pressure Wind Wind Speed Wind Gust Humidity Rainfall Rate (Hourly) solar Conditions
00:50 21.5 °C 3.7 °C 1011.7 hPa Calm     31% 0 mm 0.0 W/m2
00:55 21.2 °C 3.8 °C 1011.7 hPa Calm     32% 0 mm 0.0 W/m2
01:00 21.2 °C 3.8 °C 1011.7 hPa Calm     32% 0 mm 0.0 W/m2
01:05 21.3 °C 3.9 °C 1011.7 hPa Calm     32% 0 mm 0.0 W/m2
01:11 21.3 °C 3.9 °C 1011.7 hPa Calm     32% 0 mm 0.0 W/m2
01:16 21.3 °C 3.9 °C 1011.7 hPa Calm     32% 0 mm 0.0 W/m2
01:21 21.1 °C 3.8 °C 1011.7 hPa Calm     32% 0 mm 0.0 W/m2
01:26 21 °C 3.7 °C 1011.7 hPa Calm     32% 0 mm 0.0 W/m2
01:32 21 °C 4.1 °C 1011.7 hPa Calm     33% 0 mm 0.0 W/m2
01:37 21.1 °C 3.8 °C 1011.7 hPa Calm   9.7 km/h 32% 0 mm 0.0 W/m2
01:42 21.1 °C 3.8 °C 1011.7 hPa NNW 1.4 km/h 8 km/h 32% 0 mm 0.0 W/m2
01:47 21.1 °C 3.8 °C 1011.7 hPa NNW 7.9 km/h 12.9 km/h 32% 0 mm 0.0 W/m2
01:52 21.1 °C 3.8 °C 1011.7 hPa NNW 1.4 km/h 14.5 km/h 32% 0 mm 0.0 W/m2
02:02 20.8 °C 3.5 °C 1011.7 hPa Calm   6.4 km/h 32% 0 mm 0.0 W/m2
02:07 20.8 °C 3.9 °C 1011.7 hPa Calm   12.9 km/h 33% 0 mm 0.0 W/m2
02:13 20.8 °C 3.5 °C 1011.4 hPa Calm   12.9 km/h 32% 0 mm 0.0 W/m2
02:18 20.7 °C 3.8 °C 1011.4 hPa Calm   12.9 km/h 33% 0 mm 0.0 W/m2
02:23 20.6 °C 3.8 °C 1011.4 hPa NNW 11.1 km/h 11.3 km/h 33% 0 mm 0.0 W/m2
02:28 20.4 °C 3.6 °C 1011.1 hPa Calm   9.7 km/h 33% 0 mm 0.0 W/m2
02:35 20.3 °C 3.5 °C 1011.1 hPa NNW 9.7 km/h 11.3 km/h 33% 0 mm 0.0 W/m2
02:40 20.4 °C 3.6 °C 1011.1 hPa NNW 1.4 km/h 12.9 km/h 33% 0 mm 0.0 W/m2
02:50 20.3 °C 3.5 °C 1011.1 hPa NNW 7.9 km/h 12.9 km/h 33% 0 mm 0.0 W/m2
02:55 20.2 °C 3.4 °C 1011.1 hPa NNW 1.4 km/h 12.9 km/h 33% 0 mm 0.0 W/m2
03:04 20.1 °C 3.3 °C 1010.7 hPa NNW 6.4 km/h 11.3 km/h 33% 0 mm 0.0 W/m2
03:09 20.2 °C 3.4 °C 1011.1 hPa NNW 11.1 km/h 11.3 km/h 33% 0 mm 0.0 W/m2
03:15 20.4 °C 3.6 °C 1011.1 hPa NNW 1.4 km/h 12.9 km/h 33% 0 mm 0.0 W/m2
03:20 20.5 °C 3.2 °C 1010.7 hPa Calm   8 km/h 32% 0 mm 0.0 W/m2
03:23 20.6 °C 3.3 °C 1010.7 hPa NNW 1.4 km/h 11.3 km/h 32% 0 mm 0.0 W/m2
03:39 20.8 °C 3.5 °C 1010.7 hPa Calm     32% 0 mm 0.0 W/m2
03:54 20.7 °C 3.4 °C 1010.7 hPa Calm   12.9 km/h 32% 0 mm 0.0 W/m2
04:08 20.6 °C 3.3 °C 1010.7 hPa NNW 6.4 km/h 14.5 km/h 32% 0 mm 0.0 W/m2
04:19 20.6 °C 3.3 °C 1010.7 hPa NNW 13 km/h 14.5 km/h 32% 0 mm 0.0 W/m2
04:34 20.5 °C 3.2 °C 1010.4 hPa NNW 13 km/h 19.3 km/h 32% 0 mm 0.0 W/m2
04:49 20.4 °C 3.1 °C 1010.7 hPa NNW 11.1 km/h 17.7 km/h 32% 0 mm 0.0 W/m2
04:59 20.3 °C 3.5 °C 1010.7 hPa NNW 9.7 km/h 14.5 km/h 33% 0 mm 0.0 W/m2
05:20 20.1 °C 3.3 °C 1010.7 hPa NNW 9.7 km/h 11.3 km/h 33% 0 mm 0.0 W/m2
05:35 19.7 °C 3.4 °C 1011.1 hPa NNW 1.4 km/h 8 km/h 34% 0 mm 0.0 W/m2
05:51 19.2 °C 3.4 °C 1011.1 hPa Calm     35% 0 mm 0.0 W/m2
05:59 19.7 °C 3.8 °C 1011.4 hPa Calm   3.2 km/h 35% 0 mm 0.0 W/m2
06:08 20.9 °C 3.6 °C 1011.4 hPa Calm     32% 0 mm 0.0 W/m2
06:13 21.2 °C 3.8 °C 1011.4 hPa NNW 1.4 km/h 3.2 km/h 32% 0 mm 0.0 W/m2
06:16 21.4 °C 4 °C 1011.7 hPa Calm   6.4 km/h 32% 0 mm 0.0 W/m2
06:21 21.6 °C 3.7 °C 1011.7 hPa Calm   9.7 km/h 31% 0 mm 7.0 W/m2
06:28 21.4 °C 3.6 °C 1011.7 hPa Calm     31% 0 mm 12.0 W/m2
07:03 21.6 °C 4.2 °C 1012.4 hPa Calm   9.7 km/h 32% 0 mm 65.0 W/m2
07:17 22.3 °C 3.9 °C 1012.4 hPa Calm   9.7 km/h 30% 0 mm 153.0 W/m2
07:27 22.6 °C 4.1 °C 1012.4 hPa NNW 1.4 km/h 11.3 km/h 30% 0 mm 144.0 W/m2
07:33 22.9 °C 4.4 °C 1012.4 hPa NNW 7.9 km/h 19.3 km/h 30% 0 mm 142.0 W/m2
07:50 23.3 °C 4.3 °C 1012.8 hPa NNW 11.1 km/h 14.5 km/h 29% 0 mm 192.0 W/m2
08:03 23.8 °C 4.2 °C 1012.8 hPa North 11.1 km/h 25.7 km/h 28% 0 mm 295.0 W/m2
08:13 24.4 °C 4.7 °C 1012.8 hPa North 9.7 km/h 24.1 km/h 28% 0 mm 264.0 W/m2
09:40 25.6 °C 4.7 °C 1013.1 hPa North 6.4 km/h 22.5 km/h 26% 0 mm 281.0 W/m2
09:54 26.8 °C 5.1 °C 1013.4 hPa North 1.4 km/h 16.1 km/h 25% 0 mm 754.0 W/m2
10:14 26.2 °C 5.2 °C 1013.1 hPa North 13 km/h 19.3 km/h 26% 0 mm 128.0 W/m2
10:19 26.2 °C 5.2 °C 1013.1 hPa North 14.3 km/h 17.7 km/h 26% 0 mm 172.0 W/m2
10:24 26.2 °C 5.7 °C 1012.8 hPa North 7.9 km/h 17.7 km/h 27% 0 mm 174.0 W/m2
10:29 26.3 °C 5.8 °C 1012.8 hPa North 19.5 km/h 24.1 km/h 27% 0 mm 151.0 W/m2
10:32 26.3 °C 5.8 °C 1012.8 hPa North 19.5 km/h 24.1 km/h 27% 0 mm 151.0 W/m2
10:42 26.3 °C 5.8 °C 1012.8 hPa North 6.4 km/h 24.1 km/h 27% 0 mm 176.0 W/m2
10:55 26.3 °C 5.8 °C 1012.8 hPa North 6.4 km/h 16.1 km/h 27% 0 mm 142.0 W/m2
11:04 26.8 °C 5.7 °C 1012.4 hPa North 17.7 km/h 17.7 km/h 26% 0 mm 239.0 W/m2
11:19 27.1 °C 5.4 °C 1012.4 hPa North 20.9 km/h 27.4 km/h 25% 0 mm 202.0 W/m2
11:34 27.1 °C 5.9 °C 1012.4 hPa North 17.7 km/h 29 km/h 26% 0 mm 204.0 W/m2
11:49 27.3 °C 5.5 °C 1012.1 hPa North 17.7 km/h 29 km/h 25% 0 mm 229.0 W/m2
12:09 28 °C 5.5 °C 1011.7 hPa NNE 20.9 km/h 25.7 km/h 24% 0 mm 387.0 W/m2
12:19 28.5 °C 5.4 °C 1011.7 hPa NNE 20.9 km/h 27.4 km/h 23% 0 mm 793.0 W/m2
12:29 29 °C 5.8 °C 1011.4 hPa NNE 9.7 km/h 17.7 km/h 23% 0 mm 633.0 W/m2
12:39 29.3 °C 5.4 °C 1011.4 hPa NNE 9.7 km/h 17.7 km/h 22% 0 mm 318.0 W/m2
12:44 29.7 °C 5.7 °C 1011.4 hPa NNW 14.3 km/h 22.5 km/h 22% 0 mm 737.0 W/m2
12:59 29.7 °C 5.7 °C 1011.4 hPa North 19.5 km/h 29 km/h 22% 0 mm 621.0 W/m2
13:07 29.7 °C 5.7 °C 1011.1 hPa North 6.4 km/h 19.3 km/h 22% 0 mm 663.0 W/m2
13:15 29.9 °C 5.9 °C 1010.7 hPa North 14.3 km/h 20.9 km/h 22% 0 mm 529.0 W/m2
13:20 30.1 °C 6 °C 1010.7 hPa North 13 km/h 20.9 km/h 22% 0 mm 568.0 W/m2
13:25 29.9 °C 5.9 °C 1010.7 hPa North 7.9 km/h 14.5 km/h 22% 0 mm 638.0 W/m2
13:35 30 °C 6 °C 1010.7 hPa North 1.4 km/h 19.3 km/h 22% 0 mm 557.0 W/m2
14:05 29.8 °C 5.8 °C 1010.4 hPa North 7.9 km/h 22.5 km/h 22% 0 mm 214.0 W/m2
14:16 29.7 °C 5.7 °C 1010.4 hPa Calm     22% 0 mm 132.0 W/m2
14:30 29.6 °C 5.6 °C 1010.4 hPa Calm   3.2 km/h 22% 0 mm 139.0 W/m2
14:41 29.4 °C 6.1 °C 1010.4 hPa Calm   3.2 km/h 23% 0 mm 179.0 W/m2
14:57 29.6 °C 6.3 °C 1010.4 hPa Calm     23% 0 mm 294.0 W/m2
15:12 29.7 °C 5.7 °C 1010.4 hPa North 1.4 km/h 3.2 km/h 22% 0 mm 137.0 W/m2
15:22 29.3 °C 6 °C 1010.4 hPa Calm     23% 0 mm 121.0 W/m2
15:43 29.1 °C 5.9 °C 1010.4 hPa Calm     23% 0 mm 90.0 W/m2
15:58 29.2 °C 5.9 °C 1010.4 hPa NNW 11.1 km/h 17.7 km/h 23% 0 mm 83.0 W/m2
16:03 28.7 °C 6.7 °C 1010.7 hPa WSW 9.7 km/h 19.3 km/h 25% 0 mm 62.0 W/m2
16:18 28.7 °C 6.7 °C 1010.7 hPa Calm     25% 0 mm 47.0 W/m2
16:39 28.6 °C 6.6 °C 1010.7 hPa WSW 6.4 km/h 9.7 km/h 25% 0 mm 33.0 W/m2
16:49 28.6 °C 6.6 °C 1010.7 hPa Calm     25% 0 mm 37.0 W/m2
17:10 28.3 °C 7 °C 1010.7 hPa Calm     26% 0 mm 12.0 W/m2
17:20 27.7 °C 7 °C 1010.7 hPa Calm     27% 0 mm 0.0 W/m2
17:30 27.3 °C 6.7 °C 1010.7 hPa Calm     27% 0 mm 0.0 W/m2
17:51 27.2 °C 7.1 °C 1010.7 hPa WSW 9.7 km/h 12.9 km/h 28% 0 mm 0.0 W/m2
18:01 26.8 °C 7.3 °C 1011.1 hPa WSW 14.3 km/h 14.5 km/h 29% 0 mm 0.0 W/m2
18:16 26.7 °C 7.2 °C 1011.4 hPa WSW 7.9 km/h 9.7 km/h 29% 0 mm 0.0 W/m2
18:38 26.3 °C 7.3 °C 1011.7 hPa WSW 6.4 km/h 9.7 km/h 30% 0 mm 0.0 W/m2
18:46 26 °C 7.6 °C 1011.7 hPa WSW 6.4 km/h 9.7 km/h 31% 0 mm 0.0 W/m2
19:01 25.6 °C 8.6 °C 1012.1 hPa WSW 13 km/h 17.7 km/h 34% 0 mm 0.0 W/m2
19:52 24.6 °C 8.5 °C 1012.8 hPa WSW 9.7 km/h 12.9 km/h 36% 0 mm 0.0 W/m2
20:08 24.3 °C 9.1 °C 1012.8 hPa WSW 13 km/h 13 km/h 38% 0 mm 0.0 W/m2
20:18 24.2 °C 9 °C 1013.1 hPa Calm     38% 0 mm 0.0 W/m2
20:34 24 °C 8.8 °C 1013.1 hPa Calm     38% 0 mm 0.0 W/m2
20:44 23.9 °C 8.7 °C 1013.1 hPa WSW 4.7 km/h 9.7 km/h 38% 0 mm 0.0 W/m2
20:59 23.7 °C 8.9 °C 1013.1 hPa WSW 6.4 km/h 8 km/h 39% 0 mm 0.0 W/m2
21:09 23.2 °C 8.9 °C 1013.1 hPa WSW 6.4 km/h 8 km/h 40% 0 mm 0.0 W/m2
21:29 22.4 °C 8.9 °C 1013.4 hPa WSW 7.9 km/h 11.3 km/h 42% 0 mm 0.0 W/m2
21:35 22.3 °C 8.8 °C 1013.4 hPa WSW 4.7 km/h 8 km/h 42% 0 mm 0.0 W/m2
21:46 22.3 °C 8.8 °C 1013.4 hPa WSW 9.7 km/h 12.9 km/h 42% 0 mm 0.0 W/m2
22:41 20.9 °C 8.8 °C 1013.4 hPa WSW 6.4 km/h 9.7 km/h 46% 0 mm 0.0 W/m2
22:46 20.8 °C 8.8 °C 1013.4 hPa WSW 7.9 km/h 9.7 km/h 46% 0 mm 0.0 W/m2
22:51 20.7 °C 9 °C 1013.4 hPa WSW 7.9 km/h 9.7 km/h 47% 0 mm 0.0 W/m2
22:56 20.6 °C 8.9 °C 1013.4 hPa WSW 7.9 km/h 9.7 km/h 47% 0 mm 0.0 W/m2
23:01 20.4 °C 8.7 °C 1013.4 hPa WSW 4.7 km/h 8 km/h 47% 0 mm 0.0 W/m2
23:06 20.3 °C 8.6 °C 1013.4 hPa WSW 3.2 km/h 4.8 km/h 47% 0 mm 0.0 W/m2
23:11 20.1 °C 8.4 °C 1013.4 hPa Calm     47% 0 mm 0.0 W/m2
23:17 19.9 °C 8.6 °C 1013.4 hPa Calm     48% 0 mm 0.0 W/m2
23:22 19.8 °C 8.5 °C 1013.4 hPa Calm     48% 0 mm 0.0 W/m2
23:27 19.6 °C 8.6 °C 1013.4 hPa Calm     49% 0 mm 0.0 W/m2
23:32 19.5 °C 8.5 °C 1013.4 hPa Calm     49% 0 mm 0.0 W/m2
23:37 19.3 °C 8.3 °C 1013.4 hPa Calm     49% 0 mm 0.0 W/m2
23:42 19.1 °C 8.4 °C 1013.4 hPa Calm     50% 0 mm 0.0 W/m2
23:47 19.1 °C 8.4 °C 1013.4 hPa Calm     50% 0 mm 0.0 W/m2
23:53 19 °C 8.3 °C 1013.1 hPa Calm     50% 0 mm 0.0 W/m2
Canyon Roadhouse, Fishriver Canyon, Namibia
Compliments of Weather Underground - 2.25 mb